WGS 9 (USA 275)

导读

WGS-9(USA 275)是美国于2017年3月19日发射的宽带全球卫星通信系统第九颗卫星,隶属于美国军方。它运行在地球静止轨道,主要为美军及盟友提供高容量、抗干扰的宽带通信服务,支持海外作战、应急通信与指挥控制,显著提升了美军全球通信覆盖能力,是美军军事通信体系的重要组成部分。

Basic Information
目录编号:
42075
目录名称:
WGS 9 (USA 275)
国际标识:
2017-016A
轨道中心:
EARTH
卫星名称:
WGS 9 (USA 275)
卫星全名:
--
卫星状态:
在轨 (已飞行3375 天)
发射日期:
2017-03-19 UTC
国别 :
美国 (US)
星等 :
--
Orbit Information
数据来源 国际轨道数据 AOE轨道数据
星历时间 2026-06-15T02:11:00+0800
13小时前
查看轨道信息
2026-06-15T08:00:00+0800
7小时前
查看轨道信息
半长轴 42165.205km 42165.009km
偏心率 0.0000282 0.0000297
轨道倾角 0.020° 0.013°
近地点辐角 340.110° 336.261°
升交点赤经 326.229° 328.209°
平近点角 217.455° 306.813°
近地点 35785.878km 35785.619km
远地点 35788.258km 35788.125km
周期 1436.121分钟 1436.111分钟
每日圈数 1.002701 1.002708
Detailed Information
使用方式:
暂无
2D Orbit Map
3D Orbit Map
Orbit Altitude Analysis Chart
Orbit Inclination Analysis Chart
Orbit Comprehensive Analysis Chart
View Comprehensive Chart